EW2131 Weather Reports


time (UTC)temp
F
wind
direction
speed
knots
gust
knots
rain 1hr
in
rain 24hr
in
rain mn
in
humidity
%
barometer
mb
20210801211421 69 332 2.6 8.7 0.00 0.41 0.00 43 1036.9
20210801210419 70 346 1.7 6.1 0.00 0.42 0.00 41 1037.0
20210801205421 70 347 2.6 6.1 0.00 0.43 0.00 40 1037.0
20210801204421 70 27 1.7 5.2 0.00 0.44 0.00 41 1037.2
20210801203519 71 330 5.2 8.7 0.00 0.46 0.00 40 1037.5
20210801202521 70 346 1.7 3.5 0.00 0.48 0.00 40 1037.5
20210801201521 69 358 3.5 7.0 0.00 0.50 0.00 43 1037.7
20210801200520 68 5 2.6 6.1 0.00 0.53 0.00 42 1037.9
20210801195522 68 21 5.2 9.6 0.00 0.57 0.00 44 1037.9
20210801194522 67 30 0.0 3.5 0.00 0.64 0.00 42 1038.1
20210801193520 67 30 2.6 5.2 0.00 0.68 0.00 42 1038.3
20210801192520 67 38 0.9 3.5 0.00 0.73 0.00 43 1038.3
20210801191619 67 14 6.1 7.8 0.00 0.76 0.00 43 1038.6
20210801190621 67 338 0.9 4.3 0.00 0.80 0.00 43 1038.5
20210801185620 67 360 0.9 3.5 0.00 0.88 0.00 43 1038.8
20210801184620 67 36 2.6 5.2 0.00 0.93 0.00 43 1039.2
20210801183622 66 18 1.7 5.2 0.00 0.94 0.00 48 1039.0
20210801182619 63 1 2.6 5.2 0.00 0.96 0.00 50 1039.3
20210801181622 62 358 2.6 3.5 0.00 0.96 0.00 51 1039.4
20210801180719 62 1 1.7 3.5 0.00 0.96 0.00 55 1039.5
20210801175720 61 358 0.9 3.5 0.00 0.96 0.00 54 1039.4
20210801174820 62 348 1.7 4.3 0.00 0.96 0.00 51 1039.6
20210801173820 63 356 1.7 4.3 0.00 0.96 0.00 51 1039.6
20210801172919 64 337 2.6 5.2 0.00 0.96 0.00 49 1039.8
20210801171921 63 17 1.7 7.0 0.00 0.96 0.00 52 1039.8
20210801170921 61 355 0.0 0.9 0.00 0.96 0.00 54 1039.8
20210801165921 60 42 0.9 3.5 0.00 0.96 0.00 57 1039.8
20210801164920 59 7 0.0 0.9 0.00 0.96 0.00 60 1039.8
20210801164020 59 6 1.7 5.2 0.00 0.96 0.00 61 1039.7
20210801163020 59 112 0.9 1.7 0.00 0.96 0.00 62 1039.7
20210801162019 58 22 0.0 0.0 0.00 0.96 0.00 66 1039.9
20210801161923 58 22 0.0 0.9 0.00 0.96 0.00 67 1039.9
20210801160919 57 21 1.7 2.6 0.00 0.96 0.00 72 1039.8
20210801160019 56 202 0.0 0.9 0.00 0.96 0.00 77 1039.9
20210801155021 55 202 0.0 0.9 0.00 0.96 0.00 81 1039.8
20210801154022 55 202 0.0 0.0 0.00 0.96 0.00 86 1039.9
20210801153021 54 202 0.0 0.0 0.00 0.96 0.00 89 1040.0
20210801152021 53 202 0.0 0.0 0.00 0.96 0.00 92 1040.0
20210801151020 52 202 0.0 0.0 0.00 0.96 0.00 94 1039.9
20210801150120 52 202 0.0 0.0 0.00 0.96 0.00 94 1039.9
20210801145219 51 202 0.0 0.0 0.00 0.96 0.00 93 1040.0
20210801144219 51 202 0.0 0.0 0.00 0.96 0.00 94 1039.9
20210801143221 50 202 0.0 0.0 0.00 0.96 0.00 94 1039.9
20210801142220 50 202 0.0 0.0 0.00 0.96 0.00 94 1039.9
20210801141219 50 202 0.0 0.0 0.00 0.96 0.00 94 1039.8
20210801140220 50 202 0.0 0.9 0.00 0.96 0.00 93 1039.7
20210801135221 50 202 0.0 0.0 0.00 0.96 0.00 93 1039.6
20210801134320 50 202 0.0 0.0 0.00 0.96 0.00 93 1039.6
20210801133319 50 202 0.0 0.0 0.00 0.96 0.00 92 1039.4
20210801132322 49 202 0.0 0.0 0.00 0.96 0.00 93 1039.4
20210801131420 49 202 0.0 0.0 0.00 0.96 0.00 92 1039.4
20210801130419 49 202 0.9 0.9 0.00 0.96 0.00 92 1039.1
20210801125418 49 202 0.0 1.7 0.00 0.96 0.00 92 1039.2
20210801124422 49 202 0.0 0.0 0.00 0.96 0.00 92 1039.2
20210801123419 49 202 1.7 2.6 0.00 0.96 0.00 92 1039.2
20210801122420 48 202 0.0 0.0 0.00 0.96 0.00 92 1039.0
20210801121518 49 202 0.0 0.0 0.00 0.96 0.00 91 1039.0
20210801120520 49 202 0.0 0.0 0.00 0.96 0.00 92 1039.0
20210801115520 49 180 0.0 0.9 0.00 0.96 0.00 92 1038.9
20210801114519 49 180 0.9 2.6 0.00 0.96 0.00 91 1039.0
20210801113521 49 180 0.0 1.7 0.00 0.96 0.00 91 1039.0
20210801112519 49 202 0.9 1.7 0.00 0.96 0.00 93 1038.9
20210801111519 49 175 1.7 3.5 0.00 0.96 0.00 93 1038.8
20210801110520 49 180 0.9 1.7 0.00 0.96 0.00 95 1038.7
20210801105520 49 180 0.0 0.9 0.00 0.96 0.00 95 1038.8
20210801104519 49 202 0.0 1.7 0.00 0.96 0.00 96 1038.7
20210801103520 49 202 0.9 1.7 0.00 0.96 0.00 95 1038.8
20210801102519 49 180 0.0 0.0 0.00 0.96 0.00 95 1038.5
20210801101618 49 180 0.0 0.0 0.00 0.96 0.00 94 1038.5
20210801100620 49 180 0.0 0.0 0.00 0.96 0.00 94 1038.6
20210801095620 49 180 0.0 0.9 0.00 0.96 0.00 94 1038.7
20210801094620 49 180 0.9 1.7 0.00 0.96 0.00 95 1038.6
20210801093622 49 180 0.0 0.9 0.00 0.96 0.00 95 1038.7
20210801092719 49 180 0.0 0.0 0.00 0.96 0.00 95 1038.7
20210801091720 50 180 0.0 0.0 0.00 0.96 0.00 95 1038.7
20210801090719 49 180 0.0 0.0 0.00 0.96 0.00 95 1038.7
20210801085818 49 180 0.9 1.7 0.00 0.96 0.00 95 1038.6
20210801084822 50 157 0.0 0.9 0.00 0.96 0.00 96 1038.5
20210801083920 50 157 1.7 3.5 0.00 0.96 0.00 96 1038.6
20210801082920 50 157 0.0 0.9 0.00 0.96 0.00 96 1038.9
20210801081920 50 157 0.0 0.0 0.00 0.96 0.00 96 1038.9
20210801080918 50 157 0.0 0.9 0.00 0.96 0.00 95 1039.0
20210801075921 50 157 0.9 1.7 0.00 0.97 0.00 96 1039.1
20210801075018 50 180 0.0 0.0 0.00 0.97 0.00 96 1039.2
20210801074021 50 180 0.9 1.7 0.00 0.97 0.00 95 1039.0
20210801073021 50 180 0.9 0.9 0.00 0.97 0.00 94 1039.3
20210801072021 50 157 0.0 0.0 0.00 0.97 0.00 94 1039.4
20210801071019 50 157 0.0 0.0 0.00 0.97 0.00 95 1039.7
20210801070019 50 157 0.0 0.0 0.00 0.97 0.00 95 1039.6
20210801065020 50 157 0.0 0.9 0.00 0.97 0.00 96 1039.8
20210801064019 50 157 1.7 2.6 0.00 0.97 0.00 95 1039.9
20210801063019 50 157 1.7 2.6 0.00 0.97 0.00 95 1040.0
20210801062019 50 157 0.0 0.0 0.00 0.97 0.00 94 1040.0
20210801061019 50 157 2.6 3.5 0.00 0.97 0.00 96 1040.1
20210801060118 51 157 0.0 0.0 0.00 0.97 0.00 95 1040.1
20210801055137 51 202 1.7 1.7 0.00 0.97 0.97 95 1039.9
20210801053237 51 202 0.0 0.0 0.00 0.97 0.97 96 1039.8
20210801052236 51 202 0.0 0.9 0.00 0.98 0.97 94 1039.8
20210801051236 51 202 0.0 0.0 0.00 0.98 0.97 94 1039.8
20210801050335 51 202 0.0 0.9 0.00 0.99 0.97 94 1039.6
20210801045335 51 202 0.0 0.0 0.00 1.00 0.97 95 1039.7
20210801044337 51 202 0.0 0.9 0.00 1.02 0.97 94 1039.6
20210801044237 51 202 0.0 0.9 0.00 1.02 0.97 94 1039.6
20210801043237 51 177 1.7 2.6 0.00 1.05 0.97 94 1039.5
20210801042240 52 157 0.9 1.7 0.00 1.08 0.97 96 1039.7
20210801041335 52 157 0.0 0.0 0.00 1.12 0.97 95 1039.6
20210801040336 52 157 0.0 0.0 0.00 1.14 0.97 94 1039.8
20210801035436 52 157 0.0 0.0 0.00 1.15 0.97 95 1039.6
20210801034436 52 270 0.0 0.0 0.00 1.15 0.97 95 1039.6
20210801033437 52 270 0.0 0.0 0.01 1.15 0.97 94 1039.4
20210801032436 52 270 0.0 0.0 0.01 1.15 0.97 94 1039.3
20210801031437 52 337 0.0 0.0 0.02 1.15 0.97 93 1039.2
20210801030436 52 337 0.0 0.0 0.02 1.15 0.97 93 1039.1
20210801025436 52 337 3.5 6.1 0.02 1.15 0.97 95 1038.8
20210801024437 53 4 1.7 3.5 0.02 1.15 0.96 96 1038.7
20210801023438 53 18 0.9 3.5 0.01 1.15 0.96 96 1038.5
20210801022536 53 337 1.7 3.5 0.01 1.15 0.96 95 1038.5
20210801021635 54 337 0.9 1.7 0.00 1.14 0.95 97 1038.4
20210801020735 54 360 0.0 1.7 0.00 1.14 0.95 95 1038.3
20210801015738 53 360 0.0 0.0 0.00 1.14 0.95 95 1038.4
20210801014734 53 360 0.0 0.0 0.01 1.14 0.95 95 1038.5
20210801013736 53 360 0.0 0.0 0.01 1.14 0.95 95 1038.4
20210801012735 53 360 0.0 0.0 0.02 1.14 0.95 96 1038.4
20210801011735 53 360 0.0 0.0 0.06 1.14 0.95 96 1038.3
20210801010736 53 360 0.0 0.0 0.09 1.14 0.95 96 1038.5
20210801005735 53 360 0.0 0.0 0.15 1.14 0.95 95 1038.4
20210801004738 53 360 0.0 0.0 0.20 1.13 0.94 96 1038.3
20210801003736 53 360 0.0 0.0 0.23 1.13 0.93 96 1038.3
20210801002736 54 6 1.7 2.6 0.25 1.12 0.92 96 1038.3
20210801001737 53 22 0.9 1.7 0.23 1.08 0.89 95 1038.5
20210801000737 54 22 0.0 0.9 0.21 1.05 0.85 95 1038.4
20210731235735 54 345 0.0 1.7 0.16 0.99 0.79 95 1038.4
20210731234737 54 22 0.0 1.7 0.11 0.93 0.73 95 1038.3
20210731233835 54 180 0.0 0.0 0.08 0.90 0.71 95 1038.3
20210731232837 54 180 0.0 0.0 0.06 0.87 0.68 95 1038.4
20210731231836 54 180 0.0 0.0 0.05 0.86 0.66 95 1038.3
20210731230839 54 180 0.0 0.0 0.04 0.85 0.65 94 1038.3
20210731225935 54 180 0.0 0.0 0.04 0.85 0.65 95 1038.3
20210731224936 54 180 0.0 0.0 0.05 0.84 0.64 95 1038.3
20210731223937 54 180 0.0 0.0 0.06 0.83 0.63 94 1038.5
20210731222937 54 180 0.0 0.0 0.06 0.82 0.62 94 1038.4
20210731221936 54 180 0.0 0.9 0.05 0.81 0.61 95 1038.4
20210731220954 54 112 0.0 0.9 0.06 0.81 0.61 94 1038.5
20210731215956 54 112 0.0 0.0 0.06 0.82 0.61 93 1038.3
20210731214955 54 112 0.9 1.7 0.06 0.82 0.59 94 1038.2
20210731213957 54 22 0.0 0.0 0.05 0.84 0.57 93 1038.1
20210731213056 54 22 0.9 1.7 0.06 0.84 0.56 93 1038.2